owner,sensor,date,latitude,longitude,vertical_datum,mass_concentration_of_oxygen_in_sea_water,qcFlag 
DISL,ioos:station:DISL:KATA:1,2017-02-01T00:00:00Z,30.2583,-88.2131,3.895,7.72,1111122 
DISL,ioos:station:DISL:KATA:1,2017-02-01T00:30:00Z,30.2583,-88.2131,3.901,7.93,1111122 
DISL,ioos:station:DISL:KATA:1,2017-02-01T01:00:00Z,30.2583,-88.2131,3.907,7.85,1111122 
DISL,ioos:station:DISL:KATA:1,2017-02-01T01:30:00Z,30.2583,-88.2131,3.923,8.15,1111122 
DISL,ioos:station:DISL:KATA:1,2017-02-01T02:00:00Z,30.2583,-88.2131,3.949,8.38,1111122 
DISL,ioos:station:DISL:KATA:1,2017-02-01T02:30:00Z,30.2583,-88.2131,3.97,8.52,1111122 
DISL,ioos:station:DISL:KATA:1,2017-02-01T03:00:00Z,30.2583,-88.2131,3.987,8.74,1111122 
DISL,ioos:station:DISL:KATA:1,2017-02-01T03:30:00Z,30.2583,-88.2131,4.001,9.23,1111122 
DISL,ioos:station:DISL:KATA:1,2017-02-01T04:00:00Z,30.2583,-88.2131,4.012,9.15,1111122 
DISL,ioos:station:DISL:KATA:1,2017-02-01T04:30:00Z,30.2583,-88.2131,4.023,9.16,1111122 
DISL,ioos:station:DISL:KATA:1,2017-02-01T05:00:00Z,30.2583,-88.2131,4.034,9.11,1111122 
DISL,ioos:station:DISL:KATA:1,2017-02-01T05:30:00Z,30.2583,-88.2131,4.029,9.04,1111122 
DISL,ioos:station:DISL:KATA:1,2017-02-01T06:00:00Z,30.2583,-88.2131,4.018,9.01,1111122 
DISL,ioos:station:DISL:KATA:1,2017-02-01T06:30:00Z,30.2583,-88.2131,4.003,8.83,1111122 
DISL,ioos:station:DISL:KATA:1,2017-02-01T07:00:00Z,30.2583,-88.2131,3.994,8.56,1111122 
DISL,ioos:station:DISL:KATA:1,2017-02-01T07:30:00Z,30.2583,-88.2131,3.99,8.66,1111122 
DISL,ioos:station:DISL:KATA:1,2017-02-01T08:00:00Z,30.2583,-88.2131,3.988,8.8,1111122 
DISL,ioos:station:DISL:KATA:1,2017-02-01T08:30:00Z,30.2583,-88.2131,3.978,8.82,1111122 
DISL,ioos:station:DISL:KATA:1,2017-02-01T09:00:00Z,30.2583,-88.2131,3.971,8.91,1111122 
DISL,ioos:station:DISL:KATA:1,2017-02-01T09:30:00Z,30.2583,-88.2131,3.963,8.91,1111122 
DISL,ioos:station:DISL:KATA:1,2017-02-01T10:00:00Z,30.2583,-88.2131,3.941,8.81,1111122 
DISL,ioos:station:DISL:KATA:1,2017-02-01T10:30:00Z,30.2583,-88.2131,3.918,8.89,1111122 
DISL,ioos:station:DISL:KATA:1,2017-02-01T11:00:00Z,30.2583,-88.2131,3.896,8.88,1111122 
DISL,ioos:station:DISL:KATA:1,2017-02-01T11:30:00Z,30.2583,-88.2131,3.865,8.91,1111122 
DISL,ioos:station:DISL:KATA:1,2017-02-01T12:00:00Z,30.2583,-88.2131,3.836,8.98,1111122 
DISL,ioos:station:DISL:KATA:1,2017-02-01T12:30:00Z,30.2583,-88.2131,3.814,8.9,1111122 
DISL,ioos:station:DISL:KATA:1,2017-02-01T13:00:00Z,30.2583,-88.2131,3.792,8.96,1111122 
DISL,ioos:station:DISL:KATA:1,2017-02-01T13:30:00Z,30.2583,-88.2131,3.778,8.93,1111122 
DISL,ioos:station:DISL:KATA:1,2017-02-01T14:00:00Z,30.2583,-88.2131,3.77,8.84,1111122 
DISL,ioos:station:DISL:KATA:1,2017-02-01T14:30:00Z,30.2583,-88.2131,3.773,8.57,1111122 
DISL,ioos:station:DISL:KATA:1,2017-02-01T15:00:00Z,30.2583,-88.2131,3.789,8.83,1111122 
DISL,ioos:station:DISL:KATA:1,2017-02-01T15:30:00Z,30.2583,-88.2131,3.804,8.64,1111122 
DISL,ioos:station:DISL:KATA:1,2017-02-01T16:00:00Z,30.2583,-88.2131,3.821,8.82,1111122 
DISL,ioos:station:DISL:KATA:1,2017-02-01T16:30:00Z,30.2583,-88.2131,3.845,8.82,1111122 
DISL,ioos:station:DISL:KATA:1,2017-02-01T17:00:00Z,30.2583,-88.2131,3.864,8.82,1111122 
DISL,ioos:station:DISL:KATA:1,2017-02-01T17:30:00Z,30.2583,-88.2131,3.876,8.83,1111122 
DISL,ioos:station:DISL:KATA:1,2017-02-01T18:00:00Z,30.2583,-88.2131,3.888,8.86,1111122 
DISL,ioos:station:DISL:KATA:1,2017-02-01T18:30:00Z,30.2583,-88.2131,3.893,8.85,1111122 
DISL,ioos:station:DISL:KATA:1,2017-02-01T19:00:00Z,30.2583,-88.2131,3.899,8.84,1111122 
DISL,ioos:station:DISL:KATA:1,2017-02-01T19:30:00Z,30.2583,-88.2131,3.912,8.87,1111122 
DISL,ioos:station:DISL:KATA:1,2017-02-01T20:00:00Z,30.2583,-88.2131,3.923,8.81,1111122 
DISL,ioos:station:DISL:KATA:1,2017-02-01T20:30:00Z,30.2583,-88.2131,3.938,8.82,1111122 
DISL,ioos:station:DISL:KATA:1,2017-02-01T21:00:00Z,30.2583,-88.2131,3.954,8.85,1111122 
DISL,ioos:station:DISL:KATA:1,2017-02-01T21:30:00Z,30.2583,-88.2131,3.97,8.83,1111122 
DISL,ioos:station:DISL:KATA:1,2017-02-01T22:00:00Z,30.2583,-88.2131,3.981,8.69,1111122 
DISL,ioos:station:DISL:KATA:1,2017-02-01T22:30:00Z,30.2583,-88.2131,3.982,8.74,1111122 
DISL,ioos:station:DISL:KATA:1,2017-02-01T23:00:00Z,30.2583,-88.2131,3.971,8.81,1111122 
DISL,ioos:station:DISL:KATA:1,2017-02-01T23:30:00Z,30.2583,-88.2131,3.958,8.44,1111122 
DISL,ioos:station:DISL:KATA:1,2017-02-02T00:00:00Z,30.2583,-88.2131,3.946,8.46,1111122 
DISL,ioos:station:DISL:KATA:1,2017-02-02T00:30:00Z,30.2583,-88.2131,3.936,8.7,1111122 
DISL,ioos:station:DISL:KATA:1,2017-02-02T01:00:00Z,30.2583,-88.2131,3.932,8.72,1111122 
DISL,ioos:station:DISL:KATA:1,2017-02-02T01:30:00Z,30.2583,-88.2131,3.928,8.7,1111122 
DISL,ioos:station:DISL:KATA:1,2017-02-02T02:00:00Z,30.2583,-88.2131,3.925,8.69,1111122 
DISL,ioos:station:DISL:KATA:1,2017-02-02T02:30:00Z,30.2583,-88.2131,3.935,8.68,1111122 
DISL,ioos:station:DISL:KATA:1,2017-02-02T03:00:00Z,30.2583,-88.2131,3.942,8.35,1111122 
DISL,ioos:station:DISL:KATA:1,2017-02-02T03:30:00Z,30.2583,-88.2131,3.953,7.23,1111122 
DISL,ioos:station:DISL:KATA:1,2017-02-02T04:00:00Z,30.2583,-88.2131,3.962,8.15,1111122 
DISL,ioos:station:DISL:KATA:1,2017-02-02T04:30:00Z,30.2583,-88.2131,3.968,8.12,1111122 
DISL,ioos:station:DISL:KATA:1,2017-02-02T05:00:00Z,30.2583,-88.2131,3.967,8.3,1111122 
DISL,ioos:station:DISL:KATA:1,2017-02-02T05:30:00Z,30.2583,-88.2131,3.96,8.3,1111122 
DISL,ioos:station:DISL:KATA:1,2017-02-02T06:00:00Z,30.2583,-88.2131,3.954,8.3,1111122 
DISL,ioos:station:DISL:KATA:1,2017-02-02T06:30:00Z,30.2583,-88.2131,3.946,8.62,1111122 
DISL,ioos:station:DISL:KATA:1,2017-02-02T07:00:00Z,30.2583,-88.2131,3.933,8.15,1111122 
DISL,ioos:station:DISL:KATA:1,2017-02-02T07:30:00Z,30.2583,-88.2131,3.931,7.95,1111122 
DISL,ioos:station:DISL:KATA:1,2017-02-02T08:00:00Z,30.2583,-88.2131,3.931,7.77,1111122 
DISL,ioos:station:DISL:KATA:1,2017-02-02T08:30:00Z,30.2583,-88.2131,3.939,7.41,1111122 
DISL,ioos:station:DISL:KATA:1,2017-02-02T09:00:00Z,30.2583,-88.2131,3.942,7.33,1111122 
DISL,ioos:station:DISL:KATA:1,2017-02-02T09:30:00Z,30.2583,-88.2131,3.943,6.58,1111122 
DISL,ioos:station:DISL:KATA:1,2017-02-02T10:00:00Z,30.2583,-88.2131,3.94,7.01,1111122 
DISL,ioos:station:DISL:KATA:1,2017-02-02T10:30:00Z,30.2583,-88.2131,3.926,7.53,1111122 
DISL,ioos:station:DISL:KATA:1,2017-02-02T11:00:00Z,30.2583,-88.2131,3.909,7.98,1111122 
DISL,ioos:station:DISL:KATA:1,2017-02-02T11:30:00Z,30.2583,-88.2131,3.894,7.94,1111122 
DISL,ioos:station:DISL:KATA:1,2017-02-02T12:00:00Z,30.2583,-88.2131,3.866,7.77,1111122 
DISL,ioos:station:DISL:KATA:1,2017-02-02T12:30:00Z,30.2583,-88.2131,3.844,7.65,1111122 
DISL,ioos:station:DISL:KATA:1,2017-02-02T13:00:00Z,30.2583,-88.2131,3.829,7.47,1111122 
DISL,ioos:station:DISL:KATA:1,2017-02-02T13:30:00Z,30.2583,-88.2131,3.822,7.12,1111122 
DISL,ioos:station:DISL:KATA:1,2017-02-02T14:00:00Z,30.2583,-88.2131,3.828,6.98,1111122 
DISL,ioos:station:DISL:KATA:1,2017-02-02T14:30:00Z,30.2583,-88.2131,3.841,6.2,1111122 
DISL,ioos:station:DISL:KATA:1,2017-02-02T15:00:00Z,30.2583,-88.2131,3.864,6.45,1111122 
DISL,ioos:station:DISL:KATA:1,2017-02-02T15:30:00Z,30.2583,-88.2131,3.886,7.49,1111122 
DISL,ioos:station:DISL:KATA:1,2017-02-02T16:00:00Z,30.2583,-88.2131,3.908,7.73,1111122 
DISL,ioos:station:DISL:KATA:1,2017-02-02T16:30:00Z,30.2583,-88.2131,3.934,8.07,1111122 
DISL,ioos:station:DISL:KATA:1,2017-02-02T17:00:00Z,30.2583,-88.2131,3.939,8.26,1111122 
DISL,ioos:station:DISL:KATA:1,2017-02-02T17:30:00Z,30.2583,-88.2131,3.945,8.37,1111122 
DISL,ioos:station:DISL:KATA:1,2017-02-02T18:00:00Z,30.2583,-88.2131,3.94,7.99,1111122 
DISL,ioos:station:DISL:KATA:1,2017-02-02T18:30:00Z,30.2583,-88.2131,3.938,7.9,1111122 
DISL,ioos:station:DISL:KATA:1,2017-02-02T19:00:00Z,30.2583,-88.2131,3.948,7.91,1111122 
DISL,ioos:station:DISL:KATA:1,2017-02-02T19:30:00Z,30.2583,-88.2131,3.958,7.96,1111122 
DISL,ioos:station:DISL:KATA:1,2017-02-02T20:00:00Z,30.2583,-88.2131,3.974,7.85,1111122 
DISL,ioos:station:DISL:KATA:1,2017-02-02T20:30:00Z,30.2583,-88.2131,3.995,7.87,1111122 
DISL,ioos:station:DISL:KATA:1,2017-02-02T21:00:00Z,30.2583,-88.2131,4.011,7.95,1111122 
DISL,ioos:station:DISL:KATA:1,2017-02-02T21:30:00Z,30.2583,-88.2131,4.021,7.81,1111122 
DISL,ioos:station:DISL:KATA:1,2017-02-02T22:00:00Z,30.2583,-88.2131,4.02,7.92,1111122 
DISL,ioos:station:DISL:KATA:1,2017-02-02T22:30:00Z,30.2583,-88.2131,4.017,7.87,1111122 
DISL,ioos:station:DISL:KATA:1,2017-02-02T23:00:00Z,30.2583,-88.2131,4.01,7.68,1111122 
DISL,ioos:station:DISL:KATA:1,2017-02-02T23:30:00Z,30.2583,-88.2131,4.002,7.63,1111122 
DISL,ioos:station:DISL:KATA:1,2017-02-03T00:00:00Z,30.2583,-88.2131,3.992,7.03,1111122 
DISL,ioos:station:DISL:KATA:1,2017-02-03T00:30:00Z,30.2583,-88.2131,3.973,7.85,1111122 
DISL,ioos:station:DISL:KATA:1,2017-02-03T01:00:00Z,30.2583,-88.2131,3.951,8.03,1111122 
DISL,ioos:station:DISL:KATA:1,2017-02-03T01:30:00Z,30.2583,-88.2131,3.928,8.07,1111122 
DISL,ioos:station:DISL:KATA:1,2017-02-03T02:00:00Z,30.2583,-88.2131,3.909,8.18,1111122 
DISL,ioos:station:DISL:KATA:1,2017-02-03T02:30:00Z,30.2583,-88.2131,3.895,8.31,1111122 
DISL,ioos:station:DISL:KATA:1,2017-02-03T03:00:00Z,30.2583,-88.2131,3.904,8.17,1111122 
DISL,ioos:station:DISL:KATA:1,2017-02-03T03:30:00Z,30.2583,-88.2131,3.902,7.12,1111122 
DISL,ioos:station:DISL:KATA:1,2017-02-03T04:00:00Z,30.2583,-88.2131,3.918,7.09,1111122 
DISL,ioos:station:DISL:KATA:1,2017-02-03T04:30:00Z,30.2583,-88.2131,3.919,7.98,1111122 
DISL,ioos:station:DISL:KATA:1,2017-02-03T05:00:00Z,30.2583,-88.2131,3.92,7.71,1111122 
DISL,ioos:station:DISL:KATA:1,2017-02-03T05:30:00Z,30.2583,-88.2131,3.909,7.38,1111122 
DISL,ioos:station:DISL:KATA:1,2017-02-03T06:00:00Z,30.2583,-88.2131,3.898,7.56,1111122 
DISL,ioos:station:DISL:KATA:1,2017-02-03T06:30:00Z,30.2583,-88.2131,3.878,7.52,1111122 
DISL,ioos:station:DISL:KATA:1,2017-02-03T07:00:00Z,30.2583,-88.2131,3.856,7.87,1111122 
DISL,ioos:station:DISL:KATA:1,2017-02-03T07:30:00Z,30.2583,-88.2131,3.845,7.79,1111122 
DISL,ioos:station:DISL:KATA:1,2017-02-03T08:00:00Z,30.2583,-88.2131,3.835,7.84,1111122 
DISL,ioos:station:DISL:KATA:1,2017-02-03T08:30:00Z,30.2583,-88.2131,3.843,7.57,1111122 
DISL,ioos:station:DISL:KATA:1,2017-02-03T09:00:00Z,30.2583,-88.2131,3.858,7.68,1111122 
DISL,ioos:station:DISL:KATA:1,2017-02-03T09:30:00Z,30.2583,-88.2131,3.874,7.44,1111122 
DISL,ioos:station:DISL:KATA:1,2017-02-03T10:00:00Z,30.2583,-88.2131,3.886,7.65,1111122 
DISL,ioos:station:DISL:KATA:1,2017-02-03T10:30:00Z,30.2583,-88.2131,3.893,6.25,1111122 
DISL,ioos:station:DISL:KATA:1,2017-02-03T11:00:00Z,30.2583,-88.2131,3.89,6.96,1111122 
DISL,ioos:station:DISL:KATA:1,2017-02-03T11:30:00Z,30.2583,-88.2131,3.9,7.12,1111122 
DISL,ioos:station:DISL:KATA:1,2017-02-03T12:00:00Z,30.2583,-88.2131,3.882,6.33,1111122 
DISL,ioos:station:DISL:KATA:1,2017-02-03T12:30:00Z,30.2583,-88.2131,3.866,5.98,1111122 
DISL,ioos:station:DISL:KATA:1,2017-02-03T13:00:00Z,30.2583,-88.2131,3.854,6.48,1111122 
DISL,ioos:station:DISL:KATA:1,2017-02-03T13:30:00Z,30.2583,-88.2131,3.855,6.82,1111122 
DISL,ioos:station:DISL:KATA:1,2017-02-03T14:00:00Z,30.2583,-88.2131,3.876,6.88,1111122 
DISL,ioos:station:DISL:KATA:1,2017-02-03T14:30:00Z,30.2583,-88.2131,3.89,6.82,1111122 
DISL,ioos:station:DISL:KATA:1,2017-02-03T15:00:00Z,30.2583,-88.2131,3.913,6.88,1111122 
DISL,ioos:station:DISL:KATA:1,2017-02-03T15:30:00Z,30.2583,-88.2131,3.935,7.13,1111122 
DISL,ioos:station:DISL:KATA:1,2017-02-03T16:00:00Z,30.2583,-88.2131,3.967,7.34,1111122 
DISL,ioos:station:DISL:KATA:1,2017-02-03T16:30:00Z,30.2583,-88.2131,4.002,7.37,1111122 
DISL,ioos:station:DISL:KATA:1,2017-02-03T17:00:00Z,30.2583,-88.2131,3.998,7.83,1111122 
DISL,ioos:station:DISL:KATA:1,2017-02-03T17:30:00Z,30.2583,-88.2131,3.977,7.85,1111122 
DISL,ioos:station:DISL:KATA:1,2017-02-03T18:00:00Z,30.2583,-88.2131,3.986,7.97,1111122 
DISL,ioos:station:DISL:KATA:1,2017-02-03T18:30:00Z,30.2583,-88.2131,3.96,8.09,1111122 
DISL,ioos:station:DISL:KATA:1,2017-02-03T19:00:00Z,30.2583,-88.2131,3.963,7.84,1111122 
DISL,ioos:station:DISL:KATA:1,2017-02-03T19:30:00Z,30.2583,-88.2131,3.972,7.63,1111122 
DISL,ioos:station:DISL:KATA:1,2017-02-03T20:00:00Z,30.2583,-88.2131,3.976,7.69,1111122 
DISL,ioos:station:DISL:KATA:1,2017-02-03T20:30:00Z,30.2583,-88.2131,3.995,7.62,1111122 
DISL,ioos:station:DISL:KATA:1,2017-02-03T21:00:00Z,30.2583,-88.2131,4.016,7.6,1111122 
DISL,ioos:station:DISL:KATA:1,2017-02-03T21:30:00Z,30.2583,-88.2131,3.995,7.45,1111122 
DISL,ioos:station:DISL:KATA:1,2017-02-03T22:00:00Z,30.2583,-88.2131,3.949,7.41,1111122 
DISL,ioos:station:DISL:KATA:1,2017-02-03T22:30:00Z,30.2583,-88.2131,3.95,7.39,1111122 
DISL,ioos:station:DISL:KATA:1,2017-02-03T23:00:00Z,30.2583,-88.2131,3.943,7.24,1111122 
DISL,ioos:station:DISL:KATA:1,2017-02-03T23:30:00Z,30.2583,-88.2131,3.947,7.23,1111122 
DISL,ioos:station:DISL:KATA:1,2017-02-04T00:00:00Z,30.2583,-88.2131,3.935,7.31,1111122 
DISL,ioos:station:DISL:KATA:1,2017-02-04T00:30:00Z,30.2583,-88.2131,3.894,7.36,1111122 
DISL,ioos:station:DISL:KATA:1,2017-02-04T01:00:00Z,30.2583,-88.2131,3.858,7.14,1111122 
DISL,ioos:station:DISL:KATA:1,2017-02-04T01:30:00Z,30.2583,-88.2131,3.834,7.05,1111122 
DISL,ioos:station:DISL:KATA:1,2017-02-04T02:00:00Z,30.2583,-88.2131,3.809,7.06,1111122 
DISL,ioos:station:DISL:KATA:1,2017-02-04T02:30:00Z,30.2583,-88.2131,3.786,7.14,1111122 
DISL,ioos:station:DISL:KATA:1,2017-02-04T03:00:00Z,30.2583,-88.2131,3.762,7.2,1111122 
DISL,ioos:station:DISL:KATA:1,2017-02-04T03:30:00Z,30.2583,-88.2131,3.747,8.1,1111122 
DISL,ioos:station:DISL:KATA:1,2017-02-04T04:00:00Z,30.2583,-88.2131,3.72,6.81,1111122 
DISL,ioos:station:DISL:KATA:1,2017-02-04T04:30:00Z,30.2583,-88.2131,3.695,7.15,1111122 
DISL,ioos:station:DISL:KATA:1,2017-02-04T05:00:00Z,30.2583,-88.2131,3.679,7.03,1111122 
DISL,ioos:station:DISL:KATA:1,2017-02-04T05:30:00Z,30.2583,-88.2131,3.649,6.81,1111122 
DISL,ioos:station:DISL:KATA:1,2017-02-04T06:00:00Z,30.2583,-88.2131,3.629,6.85,1111122 
DISL,ioos:station:DISL:KATA:1,2017-02-04T06:30:00Z,30.2583,-88.2131,3.625,6.79,1111122 
DISL,ioos:station:DISL:KATA:1,2017-02-04T07:00:00Z,30.2583,-88.2131,3.605,6.88,1111122 
DISL,ioos:station:DISL:KATA:1,2017-02-04T07:30:00Z,30.2583,-88.2131,3.592,6.8,1111122 
DISL,ioos:station:DISL:KATA:1,2017-02-04T08:00:00Z,30.2583,-88.2131,3.589,6.81,1111122 
DISL,ioos:station:DISL:KATA:1,2017-02-04T08:30:00Z,30.2583,-88.2131,3.583,6.64,1111122 
DISL,ioos:station:DISL:KATA:1,2017-02-04T09:00:00Z,30.2583,-88.2131,3.586,6.84,1111122 
DISL,ioos:station:DISL:KATA:1,2017-02-04T09:30:00Z,30.2583,-88.2131,3.601,6.96,1111122 
DISL,ioos:station:DISL:KATA:1,2017-02-04T10:00:00Z,30.2583,-88.2131,3.617,6.85,1111122 
DISL,ioos:station:DISL:KATA:1,2017-02-04T10:30:00Z,30.2583,-88.2131,3.638,6.74,1111122 
DISL,ioos:station:DISL:KATA:1,2017-02-04T11:00:00Z,30.2583,-88.2131,3.662,6.61,1111122 
DISL,ioos:station:DISL:KATA:1,2017-02-04T11:30:00Z,30.2583,-88.2131,3.682,6.53,1111122 
DISL,ioos:station:DISL:KATA:1,2017-02-04T12:00:00Z,30.2583,-88.2131,3.705,6.45,1111122 
DISL,ioos:station:DISL:KATA:1,2017-02-04T12:30:00Z,30.2583,-88.2131,3.719,6.34,1111122 
DISL,ioos:station:DISL:KATA:1,2017-02-04T13:00:00Z,30.2583,-88.2131,3.728,6.27,1111122 
DISL,ioos:station:DISL:KATA:1,2017-02-04T13:30:00Z,30.2583,-88.2131,3.731,6.23,1111122 
DISL,ioos:station:DISL:KATA:1,2017-02-04T14:00:00Z,30.2583,-88.2131,3.734,6.28,1111122 
DISL,ioos:station:DISL:KATA:1,2017-02-04T14:30:00Z,30.2583,-88.2131,3.744,6.22,1111122 
DISL,ioos:station:DISL:KATA:1,2017-02-04T15:00:00Z,30.2583,-88.2131,3.763,6.15,1111122 
DISL,ioos:station:DISL:KATA:1,2017-02-04T15:30:00Z,30.2583,-88.2131,3.801,6.01,1111122 
DISL,ioos:station:DISL:KATA:1,2017-02-04T16:00:00Z,30.2583,-88.2131,3.839,6.0,1111122 
DISL,ioos:station:DISL:KATA:1,2017-02-04T16:30:00Z,30.2583,-88.2131,3.878,6.11,1111122 
DISL,ioos:station:DISL:KATA:1,2017-02-04T17:00:00Z,30.2583,-88.2131,3.913,6.17,1111122 
DISL,ioos:station:DISL:KATA:1,2017-02-04T17:30:00Z,30.2583,-88.2131,3.951,6.1,1111122 
DISL,ioos:station:DISL:KATA:1,2017-02-04T18:00:00Z,30.2583,-88.2131,3.968,6.08,1111122 
DISL,ioos:station:DISL:KATA:1,2017-02-04T18:30:00Z,30.2583,-88.2131,3.999,5.94,1111122 
DISL,ioos:station:DISL:KATA:1,2017-02-04T19:00:00Z,30.2583,-88.2131,4.017,5.81,1111122 
DISL,ioos:station:DISL:KATA:1,2017-02-04T19:30:00Z,30.2583,-88.2131,4.032,5.5,1111122 
DISL,ioos:station:DISL:KATA:1,2017-02-04T20:00:00Z,30.2583,-88.2131,4.044,5.29,1111122 
DISL,ioos:station:DISL:KATA:1,2017-02-04T20:30:00Z,30.2583,-88.2131,4.058,5.0,1111122 
DISL,ioos:station:DISL:KATA:1,2017-02-04T21:00:00Z,30.2583,-88.2131,4.075,5.01,1111122 
DISL,ioos:station:DISL:KATA:1,2017-02-04T21:30:00Z,30.2583,-88.2131,4.092,4.72,1111122 
DISL,ioos:station:DISL:KATA:1,2017-02-04T22:00:00Z,30.2583,-88.2131,4.092,4.42,1111122 
DISL,ioos:station:DISL:KATA:1,2017-02-04T22:30:00Z,30.2583,-88.2131,4.083,4.45,1111122 
DISL,ioos:station:DISL:KATA:1,2017-02-04T23:00:00Z,30.2583,-88.2131,4.076,4.4,1111122 
DISL,ioos:station:DISL:KATA:1,2017-02-04T23:30:00Z,30.2583,-88.2131,4.064,4.84,1111122 
DISL,ioos:station:DISL:KATA:1,2017-02-05T00:00:00Z,30.2583,-88.2131,4.038,4.63,1111122 
DISL,ioos:station:DISL:KATA:1,2017-02-05T00:30:00Z,30.2583,-88.2131,4.019,4.63,1111122 
DISL,ioos:station:DISL:KATA:1,2017-02-05T01:00:00Z,30.2583,-88.2131,3.996,4.34,1111122 
DISL,ioos:station:DISL:KATA:1,2017-02-05T01:30:00Z,30.2583,-88.2131,3.975,4.15,1111122 
DISL,ioos:station:DISL:KATA:1,2017-02-05T02:00:00Z,30.2583,-88.2131,3.959,4.28,1111122 
DISL,ioos:station:DISL:KATA:1,2017-02-05T02:30:00Z,30.2583,-88.2131,3.939,4.23,1111122 
DISL,ioos:station:DISL:KATA:1,2017-02-05T03:00:00Z,30.2583,-88.2131,3.907,3.87,1111122 
DISL,ioos:station:DISL:KATA:1,2017-02-05T03:30:00Z,30.2583,-88.2131,3.883,3.82,1111122 
DISL,ioos:station:DISL:KATA:1,2017-02-05T04:00:00Z,30.2583,-88.2131,3.847,4.05,1111122 
DISL,ioos:station:DISL:KATA:1,2017-02-05T04:30:00Z,30.2583,-88.2131,3.814,4.23,1111122 
DISL,ioos:station:DISL:KATA:1,2017-02-05T05:00:00Z,30.2583,-88.2131,3.781,3.7,1111122 
DISL,ioos:station:DISL:KATA:1,2017-02-05T05:30:00Z,30.2583,-88.2131,3.74,3.69,1111122 
DISL,ioos:station:DISL:KATA:1,2017-02-05T06:00:00Z,30.2583,-88.2131,3.708,3.59,1111122 
DISL,ioos:station:DISL:KATA:1,2017-02-05T06:30:00Z,30.2583,-88.2131,3.7,3.41,1111122 
DISL,ioos:station:DISL:KATA:1,2017-02-05T07:00:00Z,30.2583,-88.2131,3.679,3.57,1111122 
DISL,ioos:station:DISL:KATA:1,2017-02-05T07:30:00Z,30.2583,-88.2131,3.658,3.84,1111122 
DISL,ioos:station:DISL:KATA:1,2017-02-05T08:00:00Z,30.2583,-88.2131,3.644,4.09,1111122 
DISL,ioos:station:DISL:KATA:1,2017-02-05T08:30:00Z,30.2583,-88.2131,3.653,5.4,1111122 
DISL,ioos:station:DISL:KATA:1,2017-02-05T09:00:00Z,30.2583,-88.2131,3.661,4.5,1111122 
DISL,ioos:station:DISL:KATA:1,2017-02-05T09:30:00Z,30.2583,-88.2131,3.68,4.15,1111122 
DISL,ioos:station:DISL:KATA:1,2017-02-05T10:00:00Z,30.2583,-88.2131,3.69,4.4,1111122 
DISL,ioos:station:DISL:KATA:1,2017-02-05T10:30:00Z,30.2583,-88.2131,3.7,4.39,1111122 
DISL,ioos:station:DISL:KATA:1,2017-02-05T11:00:00Z,30.2583,-88.2131,3.712,4.42,1111122 
DISL,ioos:station:DISL:KATA:1,2017-02-05T11:30:00Z,30.2583,-88.2131,3.733,4.41,1111122 
DISL,ioos:station:DISL:KATA:1,2017-02-05T12:00:00Z,30.2583,-88.2131,3.748,4.32,1111122 
DISL,ioos:station:DISL:KATA:1,2017-02-05T12:30:00Z,30.2583,-88.2131,3.763,4.48,1111122 
DISL,ioos:station:DISL:KATA:1,2017-02-05T13:00:00Z,30.2583,-88.2131,3.784,4.66,1111122 
DISL,ioos:station:DISL:KATA:1,2017-02-05T13:30:00Z,30.2583,-88.2131,3.812,4.54,1111122 
DISL,ioos:station:DISL:KATA:1,2017-02-05T14:00:00Z,30.2583,-88.2131,3.839,4.63,1111122 
DISL,ioos:station:DISL:KATA:1,2017-02-05T14:30:00Z,30.2583,-88.2131,3.854,4.76,1111122 
DISL,ioos:station:DISL:KATA:1,2017-02-05T15:00:00Z,30.2583,-88.2131,3.87,4.74,1111122 
DISL,ioos:station:DISL:KATA:1,2017-02-05T15:30:00Z,30.2583,-88.2131,3.893,4.82,1111122 
DISL,ioos:station:DISL:KATA:1,2017-02-05T16:00:00Z,30.2583,-88.2131,3.908,4.8,1111122 
DISL,ioos:station:DISL:KATA:1,2017-02-05T16:30:00Z,30.2583,-88.2131,3.929,4.93,1111122 
DISL,ioos:station:DISL:KATA:1,2017-02-05T17:00:00Z,30.2583,-88.2131,3.956,4.92,1111122 
DISL,ioos:station:DISL:KATA:1,2017-02-05T17:30:00Z,30.2583,-88.2131,3.969,5.03,1111122 
DISL,ioos:station:DISL:KATA:1,2017-02-05T18:00:00Z,30.2583,-88.2131,3.981,5.04,1111122 
DISL,ioos:station:DISL:KATA:1,2017-02-05T18:30:00Z,30.2583,-88.2131,3.99,5.08,1111122 
DISL,ioos:station:DISL:KATA:1,2017-02-05T19:00:00Z,30.2583,-88.2131,4.006,4.76,1111122 
DISL,ioos:station:DISL:KATA:1,2017-02-05T19:30:00Z,30.2583,-88.2131,4.027,4.94,1111122 
DISL,ioos:station:DISL:KATA:1,2017-02-05T20:00:00Z,30.2583,-88.2131,4.05,5.1,1111122 
DISL,ioos:station:DISL:KATA:1,2017-02-05T20:30:00Z,30.2583,-88.2131,4.068,5.16,1111122 
DISL,ioos:station:DISL:KATA:1,2017-02-05T21:00:00Z,30.2583,-88.2131,4.084,5.19,1111122 
DISL,ioos:station:DISL:KATA:1,2017-02-05T21:30:00Z,30.2583,-88.2131,4.101,5.53,1111122 
DISL,ioos:station:DISL:KATA:1,2017-02-05T22:00:00Z,30.2583,-88.2131,4.108,5.33,1111122 
DISL,ioos:station:DISL:KATA:1,2017-02-05T22:30:00Z,30.2583,-88.2131,4.098,5.3,1111122 
DISL,ioos:station:DISL:KATA:1,2017-02-05T23:00:00Z,30.2583,-88.2131,4.081,5.55,1111122 
DISL,ioos:station:DISL:KATA:1,2017-02-05T23:30:00Z,30.2583,-88.2131,4.062,5.24,1111122 
DISL,ioos:station:DISL:KATA:1,2017-02-06T00:00:00Z,30.2583,-88.2131,4.045,4.38,1111122 
DISL,ioos:station:DISL:KATA:1,2017-02-06T00:30:00Z,30.2583,-88.2131,4.037,4.39,1111122 
DISL,ioos:station:DISL:KATA:1,2017-02-06T01:00:00Z,30.2583,-88.2131,4.022,4.41,1111122 
DISL,ioos:station:DISL:KATA:1,2017-02-06T01:30:00Z,30.2583,-88.2131,4.007,4.68,1111122 
DISL,ioos:station:DISL:KATA:1,2017-02-06T02:00:00Z,30.2583,-88.2131,3.998,4.9,1111122 
DISL,ioos:station:DISL:KATA:1,2017-02-06T02:30:00Z,30.2583,-88.2131,3.98,5.05,1111122 
DISL,ioos:station:DISL:KATA:1,2017-02-06T03:00:00Z,30.2583,-88.2131,3.958,5.09,1111122 
DISL,ioos:station:DISL:KATA:1,2017-02-06T03:30:00Z,30.2583,-88.2131,3.931,4.87,1111122 
DISL,ioos:station:DISL:KATA:1,2017-02-06T04:00:00Z,30.2583,-88.2131,3.885,5.33,1111122 
DISL,ioos:station:DISL:KATA:1,2017-02-06T04:30:00Z,30.2583,-88.2131,3.844,5.23,1111122 
DISL,ioos:station:DISL:KATA:1,2017-02-06T05:00:00Z,30.2583,-88.2131,3.8,4.74,1111122 
DISL,ioos:station:DISL:KATA:1,2017-02-06T05:30:00Z,30.2583,-88.2131,3.756,4.61,1111122 
DISL,ioos:station:DISL:KATA:1,2017-02-06T06:00:00Z,30.2583,-88.2131,3.717,4.61,1111122 
DISL,ioos:station:DISL:KATA:1,2017-02-06T06:30:00Z,30.2583,-88.2131,3.672,4.62,1111122 
DISL,ioos:station:DISL:KATA:1,2017-02-06T07:00:00Z,30.2583,-88.2131,3.637,4.44,1111122 
DISL,ioos:station:DISL:KATA:1,2017-02-06T07:30:00Z,30.2583,-88.2131,3.607,4.54,1111122 
DISL,ioos:station:DISL:KATA:1,2017-02-06T08:00:00Z,30.2583,-88.2131,3.588,4.67,1111122 
DISL,ioos:station:DISL:KATA:1,2017-02-06T08:30:00Z,30.2583,-88.2131,3.573,5.0,1111122 
DISL,ioos:station:DISL:KATA:1,2017-02-06T09:00:00Z,30.2583,-88.2131,3.564,4.97,1111122 
DISL,ioos:station:DISL:KATA:1,2017-02-06T09:30:00Z,30.2583,-88.2131,3.571,4.79,1111122 
DISL,ioos:station:DISL:KATA:1,2017-02-06T10:00:00Z,30.2583,-88.2131,3.581,4.38,1111122 
DISL,ioos:station:DISL:KATA:1,2017-02-06T10:30:00Z,30.2583,-88.2131,3.595,4.58,1111122 
DISL,ioos:station:DISL:KATA:1,2017-02-06T11:00:00Z,30.2583,-88.2131,3.609,4.67,1111122 
DISL,ioos:station:DISL:KATA:1,2017-02-06T11:30:00Z,30.2583,-88.2131,3.622,4.71,1111122 
DISL,ioos:station:DISL:KATA:1,2017-02-06T12:00:00Z,30.2583,-88.2131,3.635,4.72,1111122 
DISL,ioos:station:DISL:KATA:1,2017-02-06T12:30:00Z,30.2583,-88.2131,3.651,4.61,1111122 
DISL,ioos:station:DISL:KATA:1,2017-02-06T13:00:00Z,30.2583,-88.2131,3.679,4.49,1111122 
DISL,ioos:station:DISL:KATA:1,2017-02-06T13:30:00Z,30.2583,-88.2131,3.706,4.44,1111122 
DISL,ioos:station:DISL:KATA:1,2017-02-06T14:00:00Z,30.2583,-88.2131,3.736,4.49,1111122 
DISL,ioos:station:DISL:KATA:1,2017-02-06T14:30:00Z,30.2583,-88.2131,3.783,4.57,1111122 
DISL,ioos:station:DISL:KATA:1,2017-02-06T15:00:00Z,30.2583,-88.2131,3.817,4.84,1111122 
DISL,ioos:station:DISL:KATA:1,2017-02-06T15:30:00Z,30.2583,-88.2131,3.852,5.12,1111122 